Regional Weather Roundup
Issued by NWS Newport/Morehead, NC

Current Version | Previous Version | Text Only | Print | Product List | Glossary On
Versions: 1 2 3 4 5 6 7 8 9 10 11 12 13 14 15 16 17 18 19 20 21 22 23 24 25 26 27 28 29 30 31 32 33 34 35 36 37 38 39 40 41 42 43 44 45 46 47 48 49 50
000
ASUS42 KMHX 270325
RWRMHX
WEATHER ROUNDUP FOR EASTERN NORTH CAROLINA
NATIONAL WEATHER SERVICE NEWPORT/MOREHEAD CITY NC
1100 PM EDT WED JUL 26 2017

NOTE: "FAIR" INDICATES FEW OR NO CLOUDS BELOW 12,000 FEET
WITH NO SIGNIFICANT WEATHER AND/OR OBSTRUCTIONS TO VISIBILITY

NCZ015>017-031-032-045>047-102-103-270400-
NORTH COAST

CITY           SKY/WX    TMP DP  RH WIND       PRES   REMARKS
EDENTON        CLEAR     75  67  77 CALM      30.12F
ELIZABETH CITY CLEAR     74  68  81 E7        30.12S
KITTY HAWK     CLEAR     74  65  74 CALM      30.12S
MANTEO         CLEAR     73  66  79 SE6       30.13S

$$

NCZ045>047-081-094-103-104-270400-
CENTRAL COAST

CITY           SKY/WX    TMP DP  RH WIND       PRES   REMARKS
FRISCO         CLEAR     74  68  81 NE6       30.12R

$$

NCZ095-097-098-100-101-270400-
SOUTHERN COAST

CITY           SKY/WX    TMP DP  RH WIND       PRES   REMARKS
BEAUFORT       CLEAR     74  70  87 CALM      30.11S
CEDAR ISLAND   NOT AVBL
JACKSONVILLE   CLEAR     77  69  76 E7        30.11R
PINEY ISLAND   CLEAR    N/A N/A N/A E8        30.11S
WILMINGTON     CLEAR     76  70  82 E5        30.10S


$$

NCZ011>013-027>030-043-044-078>080-089-090>093-098-270400-
COASTAL PLAIN

CITY           SKY/WX    TMP DP  RH WIND       PRES   REMARKS
AHOSKIE          N/A     70  68  91 SE3       30.12S
CLINTON        CLEAR     75  70  83 CALM      30.11S
ELIZABETHTOWN  NOT AVBL
GOLDSBORO      CLEAR     76  71  83 E3        30.10R
GREENVILLE     CLEAR     77  66  69 SE8       30.13S
HAVELOCK       CLEAR     72  67  84 CALM      30.12S
KENANSVILLE    CLEAR     72  68  88 CALM      30.12S
KINSTON        CLEAR     76  66  71 SE6       30.12S
NEW BERN       CLEAR     74  69  85 CALM      30.13R
RICHLANDS      CLEAR     71  68  90 CALM      30.12S
ROCKY MOUNT    CLEAR     75  70  84 S5        30.11R
WASHINGTON     CLEAR     73  67  83 SE3       30.12S
WHITEVILLE     CLEAR     73  70  92 CALM      30.10S

$$

AMZ130-135-150-152-154-156-158-170-250-252-270-ANZ085-086-088-633-658-670-270400-
MARINE OBSERVATIONS

STATION/POSITION TIME  TEMP    WIND        PRES    WAVE   SWELL
                       AIR SEA DIR/SP/G            HT/PER HT/PER
                 (UTC) (F)     (DEG/KT/KT) (MB)    (FT/S) (FT/S)
CHESAPEAKE LIGHT NOT AVBL
64 E VA BEACH    0250   75 78   90/  8/ 12 1020.3    3/ 8   3/ 8
DUCK             0300   75 74  110/ 12/ 12 1019.6
2 E DUCK         0300      74                N/A     3/ 7
OREGON INLET     0300   75 75   80/  6/  9 1019.8
13E OREGON INLT  0248      78                N/A     3/ 8   3/ 8
HATTERAS CG      0300   76 79   70/  5/  7 1019.6
DIAMOND BUOY     0250   80 83   80/ 10/ 12 1019.2    3/ 6   3/ 6
CAPE LOOKOUT     0300   79      90/  9/ 10 1019.2
BEAUFORT LAB     0300   77 80   90/  2/  3 1019.0
30 SE NEW RVR IN 0308   80 84   90/ 14/ 17 1019.0
30 SE NEW RVR IN 0243      84                N/A     4/ 5
27 SE WRIGHTSVLE 0308   81 82  100/ 14/ 19 1018.6
5 SE WRIGHTSVLE  0308   80 81   90/ 12/ 17 1019.0
225 S CAPE HAT   0250   81 83  200/ 10/ 10 1018.0    2/ 8   2/ 8
41 SE CHARLESTON 0310   80 82   CALM  /  2 1018.0

$$




USA.gov is the U.S. government's official web portal to all federal, state and local government web resources and services.